Location: City of Bazine
(38.4461°N, 99.6927°W)
Time: 15:25:11
(UTC+00:00)

Daily predictions for brighter satellites

Satellite Brightness Start Highest point End
(mag) Time Altitude Azimuth Time Altitude Azimuth Time Altitude Azimuth
Cosmos 1937 Rocket 3.7 12:01:34 13° NNW 12:06:20 71° ENE 12:11:31 10° SSE
Cosmos 1464 Rocket 3.8 12:01:12 10° SSW 12:07:18 70° W 12:13:26 10° N
USA 276 3.9 12:09:49 22° S 12:09:49 22° S 12:11:24 10° SSE
Cosmos 1455 Rocket 3.1 12:05:49 10° SSW 12:10:04 53° W 12:14:20 10° N
GEOS 3 Rocket 3.9 12:06:27 10° SE 12:11:46 70° NE 12:16:02 17° NNW
Cosmos 1072 Rocket 4.5 12:06:12 10° SSW 12:12:16 59° W 12:18:28 10° N
Envisat 3.7 12:07:30 10° NNE 12:12:31 57° E 12:17:29 10° S
ERS-2 1.9 12:10:54 10° SSE 12:14:32 83° WSW 12:16:23 28° NNW
SKYMED 2 3.5 12:10:21 10° S 12:14:37 60° W 12:17:01 25° NNW
ATLAS CENTAUR R/B 3.1 12:13:32 10° S 12:16:49 30° ESE 12:20:03 10° NE
Cosmos 1689 Rocket 2.5 12:14:41 10° SSE 12:17:33 58° ENE 12:19:13 22° N
Meteor PRIRODA 3.5 12:15:17 10° N 12:18:51 60° WNW 12:22:25 10° SSW
Cosmos 1953 2.1 12:14:55 10° SSW 12:18:53 71° W 12:22:52 10° N
COSMOS 2428 3.5 12:20:32 28° WNW 12:20:42 28° WNW 12:25:35 10° N
BREEZE M DEB (TANK) 1.2 12:20:56 67° ENE 12:20:56 67° ENE 12:22:56 10° ESE
Cosmos 1908 3.2 12:18:47 10° S 12:22:33 79° E 12:26:23 10° N
CZ-4B R/B 3.1 12:22:03 10° SSW 12:23:28 20° SW 12:23:28 20° SW
Cosmos 44 Rocket 3.6 12:22:00 15° NNW 12:26:21 77° ENE 12:31:32 10° SE
deb Chang Zheng 4 3.9 12:24:13 10° N 12:28:10 39° WNW 12:32:05 10° SW
Cosmos 1980 3.7 12:23:23 10° SW 12:28:57 58° WNW 12:34:33 10° NNE
USA 307 4.0 12:28:55 10° SSW 12:32:57 45° SE 12:37:00 10° ENE
MOS 1 Rocket 3.4 12:28:19 10° S 12:33:20 58° W 12:38:06 10° NNW
Okean O Rocket 3.7 12:30:39 10° NE 12:34:29 29° E 12:38:16 10° SSE
Cosmos 540 Rocket 3.6 12:29:57 10° SW 12:34:53 48° WNW 12:39:51 10° N
CZ-2C R/B 2.2 12:34:12 16° SW 12:37:11 42° S 12:40:54 10° E
PSLV R/B 3.9 12:33:58 10° S 12:37:59 60° WSW 12:42:06 10° NNW
Cosmos 1461 4.2 12:37:46 23° WNW 12:38:49 25° NW 12:42:46 10° N
Cosmos 1092 Rocket 4.3 12:32:52 10° N 12:39:01 72° E 12:45:11 10° SSE
BREEZE-M (TANK) 3.0 12:40:03 19° N 12:40:48 23° NNE 12:42:30 10° E
USA 308 3.6 12:37:31 10° SSW 12:41:38 55° SE 12:45:46 10° NE
USA 305 3.5 12:37:56 10° SSW 12:42:06 59° SE 12:46:16 10° NE
Cosmos 2034 Rocket 4.2 12:38:48 10° SSW 12:44:57 51° W 12:51:09 10° N
Cosmos 1602 Rocket 3.6 12:41:22 10° N 12:45:51 85° E 12:50:19 10° S
OAO 2 Rocket 3.7 12:43:17 17° W 12:46:56 56° S 12:51:45 10° ESE
SL-8 R/B 3.8 12:44:31 17° NW 12:48:11 75° NNE 12:53:00 10° ESE
SMAP 3.6 12:44:15 10° NNE 12:48:52 63° E 12:53:28 10° S
CZ-4B DEB 4.3 12:43:22 10° NNE 12:48:58 90° ESE 12:54:31 10° SSW
Spot 2 3.9 12:45:34 10° NNE 12:49:36 85° E 12:53:41 10° SSW
USA 306 3.1 12:49:41 10° SW 12:53:55 76° SE 12:58:10 10° NE
Nadezhda 4 Rocket 4.1 12:49:44 10° NNW 12:55:35 49° W 13:01:25 10° SSW
Cosmos 1340 2.6 12:52:07 10° NNW 12:55:50 64° W 12:59:33 10° S
SWAS 4.5 12:54:57 10° SW 12:59:07 56° WNW 13:03:20 10° NNE
Cosmos 1634 Rocket 4.0 12:54:41 10° S 13:00:51 85° W 13:07:03 10° N
Cosmos 1703 3.4 12:57:48 10° NNW 13:01:33 48° W 13:05:19 10° SSW
COSMO-SKYMED 1 4.1 13:00:07 10° SW 13:02:57 17° W 13:05:40 11° NW
NOSS 3-2 (A) 3.3 12:58:05 10° SSW 13:03:36 85° WNW 13:09:53 10° NNE
CZ-4B R/B 4.2 13:01:58 10° NNW 13:04:06 15° WNW 13:06:15 10° WSW
Cosmos 1346 Rocket 3.3 13:04:41 10° N 13:08:39 64° E 13:12:35 10° SSE
ATLAS 5 CENTAUR R/B 2.8 13:06:55 12° WNW 13:09:19 38° SW 13:15:59 10° SSE
Cosmos 841 Rocket 4.4 13:05:15 10° WSW 13:09:29 26° WNW 13:13:46 10° N
H-2A R/B 4.2 13:10:04 10° NNW 13:12:28 17° WNW 13:14:53 10° WSW
NOSS 3-2 (C) 3.8 13:07:55 10° SSW 13:13:19 66° ESE 13:19:26 10° NE
Lacrosse 5 rocket 1.3 13:10:35 10° NW 13:14:24 71° NE 13:18:03 10° SE
Lacrosse 4 Rocket 1.7 13:11:50 10° SW 13:15:52 47° WNW 13:20:03 10° NNE
Cosmos 1939 Rocket 3.4 13:16:36 10° NNE 13:20:29 61° E 13:24:19 10° S
Cosmos 2098 Rocket 3.6 13:18:40 10° N 13:24:46 79° W 13:29:32 10° S
Cosmos 1953 Rocket 4.4 13:20:32 10° N 13:24:48 55° E 13:29:02 10° SSE
Meteor 1-11 4.2 13:19:43 10° NNW 13:25:15 67° W 13:30:46 10° S
Cosmos 2298 Rocket 4.1 13:21:02 10° NNW 13:26:22 78° WSW 13:31:41 10° SSE
Cosmos 2369 Rocket 4.0 13:22:39 10° N 13:27:25 28° ENE 13:32:08 10° ESE
SL-16 R/B 2.3 13:22:05 10° SW 13:27:38 59° WNW 13:33:15 10° NNE
